Regional Weather Roundup
Issued by NWS

Home | Current Version | Previous Version | Graphics & Text | Print | Product List | Glossary On
Versions: 1 2 3 4 5 6 7 8 9 10 11 12 13 14 15 16 17 18 19 20 21 22 23 24 25 26 27 28 29 30 31 32 33 34 35 36 37 38 39 40 41 42 43 44 45 46 47 48 49 50
113
ASUS44 KMEG 280210
RWRTN
TENNESSEE HOURLY STATE WEATHER ROUNDUP
NATIONAL WEATHER SERVICE MEMPHIS TN
900 PM CDT TUE JUN 27 2017

TNZ002-004-019-021-049-052-054-088>092-280300-
WEST TENNESSEE

CITY           SKY/WX    TMP DP  RH WIND       PRES   REMARKS
MEMPHIS INTL   PTCLDY    79  63  57 E8        30.03R
NWS MEMPHIS      N/A     74 N/A N/A MISG        N/A
JACKSON        CLEAR     70  65  84 CALM      30.05S
SOMERVILLE     CLEAR     72  66  83 CALM      30.03S
COVINGTON      CLEAR     73  70  88 CALM      30.04S
UNION CITY     MOCLDY    72  64  78 CALM      30.05R
BOLIVAR        CLEAR     70  66  88 CALM      30.04S
HUNTINGDON     PTCLDY    70  64  83 CALM      30.05S
LEXINGTON      CLEAR     66  64  94 CALM      30.06R
SELMER         CLEAR     68  66  94 CALM      30.06R
SAVANNAH       CLEAR     68  66  94 CALM      30.05R
$$

TNZ008-025-027-028-033-062-065-066-280300-
NORTH MIDDLE TENNESSEE

CITY           SKY/WX    TMP DP  RH WIND       PRES   REMARKS
NASHVILLE      PTCLDY    73  56  54 E6        30.08R
PORTLAND       CLEAR     66  59  77 CALM      30.08S
CLARKSVILLE    CLEAR     68  55  63 N3        30.07R
SMYRNA         CLEAR     70  59  68 CALM      30.09R
COOKEVILLE     CLEAR     61  57  88 CALM      30.09S
GALLATIN       CLEAR     68  57  68 CALM      30.11R
CROSSVILLE     CLEAR     61  52  72 CALM      30.14R
$$

TNZ061-075-076-078-094-096-097-280300-
SOUTH MIDDLE TENNESSEE

CITY           SKY/WX    TMP DP  RH WIND       PRES   REMARKS
FAYETTEVILLE   CLEAR     70  59  68 N3        30.08R
TULLAHOMA      CLEAR     66  57  72 CALM      30.11R
WINCHESTER     CLEAR     64  57  77 CALM      30.10R
MCMINNVILLE    CLEAR     64  61  88 CALM      30.10R
COLUMBIA       CLEAR     70  64  83 CALM      30.05S
SHELBYVILLE    CLEAR     66  63  88 E3        30.08S
$$

TNZ017-018-042-046-047-280300-
NORTHEAST TENNESSEE

CITY           SKY/WX    TMP DP  RH WIND       PRES   REMARKS
TRI CITIES     PTCLDY    61  52  72 CALM      30.12R
ELIZABETHTON   PTCLDY    59  54  82 CALM      30.14R
$$

TNZ012-013-036-069-073-074-280300-
CENTRAL EAST TENNESSEE

CITY           SKY/WX    TMP DP  RH WIND       PRES   REMARKS
KNOXVILLE      CLEAR     70  52  52 NE3       30.09R
OAK RIDGE      CLEAR     65  56  72 CALM      30.11R
DOWNTOWN KNOXV   N/A     64  59  82 CALM      30.09R
GATLINBURG     CLEAR     64  52  63 CALM      30.10R
MORRISTOWN     CLEAR     68  54  60 CALM      30.11R
JACKSBORO        N/A     61  55  82 CALM      30.15R
$$

TNZ083-085-099-280300-
SOUTHEAST TENNESSEE

CITY           SKY/WX    TMP DP  RH WIND       PRES   REMARKS
CHATTANOOGA    PTCLDY    72  56  57 CALM      30.09R
DAYTON         PTCLDY    66  61  82 CALM      30.08R
$$

SKY/WX REPORTED AS FAIR MEANS FEW OR NO CLOUDS BELOW
12 THOUSAND FEET.





USA.gov is the U.S. government's official web portal to all federal, state and local government web resources and services.